INTELSAT 32E (IS-32E) (41945 NORAD) Tracking and Keplerian Element Data

This shows tracking and keplerian element data for the satellite.

Feedback or suggestion? Click here.




ElementValue
Catalog41945
NameINTELSAT 32E (IS-32E)
Epoch Orbit2060
Epoch Day269.49216038
Epoch Year2022
RAAN186.651
Inclination0.0235
Eccentricity5.15E-05
Argument of Perigee262.037
Mean Anonmoly50.588
Mean Motion1.00267916
Decay Rate-2.66E-06
L11 41945U 17007B 22269.49216038 -.00000266 00000+0 00000+0 0 9995
L22 41945 0.0235 186.6510 0000515 262.0370 50.5880 1.00267916 20609

Live tracking and technical data element details for INTELSAT 32E (IS-32E) (NORAD 41945). INTELSAT 32E (IS-32E) can be tracked NOW for your location showing map with azimuth and elevation plus other details from your city location.

Track the satellite on the map from your city or location and see movement details for azimuth, elevation, latitude, longitude, range, height, and movement on the map or in text.







IsCatalogInMostPopularTable: catalog: 41945, numindb: 697
Update: records affected: 1



GetName: 41945 INTELSAT 32E (IS-32E)

Hit Count: updated at: Thu, 29 Sep 2022 11:38:55 GMT